Date,TemperatureHighF,TemperatureAvgF,TemperatureLowF,DewpointHighF,DewpointAvgF,DewpointLowF,HumidityHigh,HumidityAvg,HumidityLow,PressureMaxIn,PressureMinIn,WindSpeedMaxMPH,WindSpeedAvgMPH,GustSpeedMaxMPH,PrecipitationSumIn
2013-12-1,50.0,32.1,19.0,32.5,27.2,19.8,99,77,51,30.20,29.89,7,0,10,0.00
2013-12-2,66.9,41.7,25.0,39.0,32.0,22.8,94,69,33,29.89,29.54,12,1,13,0.00
2013-12-3,44.1,35.9,28.0,35.1,31.7,27.0,91,83,68,29.73,29.51,17,3,17,0.00
2013-12-4,34.0,21.8,16.0,31.3,16.8,8.2,93,83,71,30.20,29.69,23,9,25,0.00
2013-12-5,18.0,11.7,6.1,8.1,0.7,-3.6,78,64,49,30.56,30.18,20,6,21,0.00
2013-12-6,15.1,6.1,-2.9,-2.6,-4.3,-6.7,79,64,45,30.84,30.55,14,3,17,0.00
2013-12-7,12.9,4.0,-6.0,7.9,-2.5,-9.6,87,75,56,30.88,30.50,12,2,12,0.00
2013-12-8,19.0,13.1,0.0,13.8,10.2,2.1,89,85,80,30.50,30.10,13,2,14,0.00
2013-12-9,17.1,2.8,-15.0,8.4,-1.7,-12.5,89,76,56,30.48,30.20,21,4,24,0.00
2013-12-10,30.0,20.7,5.0,27.1,14.9,7.2,90,76,64,30.37,30.19,19,4,25,0.03
2013-12-11,30.0,10.9,1.0,26.2,3.1,-4.5,85,72,55,30.76,30.34,19,4,22,0.00
2013-12-12,33.1,17.4,5.0,24.1,13.3,1.8,91,79,67,30.58,30.15,11,3,12,0.00
2013-12-13,30.0,18.5,5.0,24.6,16.4,4.1,92,86,77,30.19,29.95,19,2,19,0.00
2013-12-14,27.0,17.3,7.0,18.5,13.8,7.3,92,83,69,30.32,30.19,15,4,19,0.00
2013-12-15,32.0,21.8,12.0,26.4,19.6,12.4,93,86,75,30.25,30.03,7,1,9,0.00
2013-12-16,51.1,26.7,10.0,35.8,22.7,8.8,93,83,55,30.26,30.04,14,1,15,0.00
2013-12-17,46.0,29.9,19.0,29.5,22.7,18.7,95,77,40,30.37,30.14,18,3,19,0.00
2013-12-18,57.9,37.9,25.0,34.0,28.1,20.8,89,68,39,30.14,29.74,13,4,16,0.00
2013-12-19,34.0,28.2,17.1,29.3,23.3,13.6,93,81,71,29.98,29.75,20,6,24,0.00
2013-12-20,19.0,16.1,12.0,14.5,11.6,8.4,91,84,79,30.08,29.97,18,4,21,0.00
2013-12-21,26.1,21.0,16.0,18.9,16.3,13.3,92,82,69,29.99,29.86,18,3,19,0.00
2013-12-22,25.0,17.7,8.1,19.2,11.3,4.1,91,78,58,30.49,29.96,16,5,20,0.00
2013-12-23,17.1,8.8,1.0,4.6,-0.9,-4.4,82,68,47,30.72,30.48,15,4,16,0.00
2013-12-24,28.0,17.6,8.1,25.2,12.9,1.8,92,82,71,30.62,30.21,20,6,22,0.00
2013-12-25,46.0,26.0,12.0,29.7,20.9,13.3,94,77,47,30.38,30.30,22,4,27,0.00
2013-12-26,54.0,29.4,16.0,26.2,20.5,15.4,92,70,30,30.33,30.17,13,2,13,0.00
2013-12-27,63.0,34.1,14.0,31.3,22.8,13.1,93,66,25,30.33,30.11,27,4,28,0.00
2013-12-28,62.1,37.3,17.1,31.6,25.2,8.2,93,65,26,30.22,29.77,29,6,29,0.00
2013-12-29,18.0,9.8,1.0,8.6,-5.6,-13.4,76,55,26,30.47,30.21,26,6,29,0.00
2013-12-30,43.0,21.4,1.0,27.5,8.9,-7.4,86,60,44,30.39,30.16,27,6,30,0.00
2013-12-31,41.0,18.6,6.1,25.0,11.9,4.8,89,75,50,30.38,30.06,21,5,25,0.00